Kodiak

operational
NORAD ID: 43764 Int'l Des: 2018-099 Owner: USCGR/DHSST Country: US
LEOCIRCULARRETROGRADESSO

About Kodiak

Description loading...

Live Position

Loading 3D Globe...

Upcoming Passes

Altitude History

Altitude vs Time

uPlot chart will show altitude changes over time

Two-Line Element Set

1 43764U 18099G 26015.82565448 .00034213 00000-0 64171-3 0 9992
2 43764 97.4399 92.3376 0007285 66.8539 293.3479 15.48543496391162
Epoch: Jan 15, 2026 • Age: 7 hours

Current Status

Altitude 445.3 km
Velocity 7.64 km/s
Sub-Earth Point -50.32°S, 102.9°E
Launch Date Dec 3, 2018
Age 7.1 years
Type other

Technical Details

Classification Payload
Mass 10.00 kg
Dry Mass 10.00 kg
Total Mass 10.00 kg
Length 0.30 m
Diameter 0.10 m
Span 0.50 m
Shape Box+3 pan
Manufacturer MILLEI
Bus Type Cubesat 6U
Phase Status In Orbit
Owner/State USCGR/DHSST/US

Large Constellations

Loading constellations...